This demonstration page uses our WeatherBlox Daily Observations layout. Learn more.

Left ArrowRight Arrow

38.89511, -77.03637

Hourly Observations for May 16, 2022

Temp ( °F °C ) Dew Point ( °F °C ) Humidity (%) Winds ( mph kmh ) Pressure ( in mb ) Visibility ( mi km ) Precip ( " mm )
12:52 am 00:52 Mostly Cloudy 68 20 64 17.8 87 87 W 8 13 29.83 1010 10 16 0.00 0.00
1:52 am 01:52 Mostly Cloudy 67 19.4 63 17.2 87 87 S 8 13 29.80 1009 10 16 0.00 0.00
2:52 am 02:52 Partly Cloudy 66 18.9 63 17.2 90 90 S 7 11 29.78 1008 10 16 0.00 0.00
3:52 am 03:52 Mostly Cloudy 66 18.9 63 17.2 90 90 S 5 7 29.77 1008 10 16 0.00 0.00
4:52 am 04:52 Cloudy 67 19.4 63 17.2 87 87 Calm 29.75 1007 10 16 0.00 0.00
5:52 am 05:52 Mostly Cloudy 65 18.3 63 17.2 93 93 SSE 3 6 29.74 1007 10 16 0.00 0.00
6:52 am 06:52 Mostly Cloudy 66 18.9 63 17.2 90 90 S 3 6 29.74 1007 10 16 0.00 0.00
7:52 am 07:52 Cloudy 67 19.4 63 17.2 87 87 S 6 9 29.72 1007 10 16 0.00 0.00
8:52 am 08:52 Cloudy 68 20 64 17.8 87 87 S 7 11 29.72 1006 10 16 0.00 0.00
9:18 am 09:18 Cloudy 68 20 64 17.8 87 87 S 9 15 29.72 1006 10 16 0.00 0.00
9:26 am 09:26 Cloudy 68 20 64 17.8 87 87 S 7 11 29.73 1007 10 16 0.00 0.00
9:52 am 09:52 Cloudy 68 20 65 18.3 90 90 S 9 15 29.73 1007 10 16 0.00 0.00
10:52 am 10:52 Cloudy with Light Rain 69 20.6 65 18.3 87 87 S 8 13 29.71 1006 9 14 0.00 0.00
11:52 am 11:52 Cloudy with Light Rain 69 20.6 66 18.9 90 90 S 8 13 29.71 1006 4 6 0.04 1.02
11:55 am 11:55 Cloudy with Light Rain 69 20.6 66 18.9 90 90 S 8 13 29.71 1006 7 11 0.00 0.00
12:23 pm 12:23 Cloudy with Light Rain 69 20.6 66 18.9 90 90 SSW 5 7 29.71 1006 8 13 0.00 0.00
12:38 pm 12:38 Cloudy with Light Rain 70 21.1 66 18.9 87 87 WSW 10 17 29.72 1006 10 16 0.00 0.00
12:52 pm 12:52 Cloudy with Light Rain 71 21.7 66 18.9 84 84 SW 5 7 29.71 1006 10 16 0.00 0.00
1:04 pm 13:04 Cloudy with Light Rain 72 22.2 66 18.9 82 82 WSW 6 9 29.69 1005 10 16 0.00 0.00
1:52 pm 13:52 Mostly Sunny 74 23.3 68 20 82 82 SSE 8 13 29.67 1005 10 16 0.00 0.00
2:52 pm 14:52 Mostly Cloudy 78 25.6 64 17.8 62 62 undefined N/A 29.66 1004 10 16 0.00 0.00
3:52 pm 15:52 Partly Cloudy 81 27.2 63 17.2 54 54 VRB 5 7 29.62 1003 10 16 0.00 0.00
4:18 pm 16:18 Mostly Cloudy with Nearby Thunderstorms 79 26.1 61 16.1 54 54 SSW 7 11 29.61 1003 10 16 0.00 0.00
4:27 pm 16:27 Mostly Cloudy with Thunderstorms 79 26.1 60 15.6 52 52 Calm 29.60 1002 10 16 0.00 0.00
4:36 pm 16:36 Mostly Cloudy with Thunderstorms 76 24.4 61 16.1 60 60 W 16 26 29.65 1004 3 5 0.01 0.25
4:39 pm 16:39 Mostly Cloudy with Strong Thunderstorms 74 23.3 62 16.7 67 67 SW 16 26 29.66 1004 3 4 0.03 0.76
4:46 pm 16:46 Mostly Cloudy with Strong Thunderstorms 68 20 61 16 78 78 SW 24 39 29.67 1005 1 2 0.07 1.78
4:52 pm 16:52 Cloudy with Strong Thunderstorms 64 17.8 61 16.1 90 90 SW 15 24 29.66 1004 1 1 0.19 4.83
4:54 pm 16:54 Cloudy with Thunderstorms 64 17.8 61 16.1 90 90 SSW 14 22 29.66 1004 1 2 0.01 0.25
5:00 pm 17:00 Cloudy with Thunderstorms 65 18.3 61 16.1 87 87 SSW 8 13 29.66 1004 3 5 0.04 1.02
5:06 pm 17:06 Cloudy with Nearby Thunderstorms 65 18.3 61 16.1 87 87 SSW 7 11 29.66 1004 9 14 0.04 1.02
5:16 pm 17:16 Cloudy with Light Rain 65 18.3 61 16.1 87 87 SSE 5 7 29.66 1004 10 16 0.04 1.02
5:52 pm 17:52 Mostly Cloudy 69 20.6 62 16.7 78 78 S 8 13 29.67 1005 10 16 0.04 1.02
6:52 pm 18:52 Partly Cloudy 72 22.2 62 16.7 71 71 undefined N/A 29.69 1005 10 16 0.00 0.00
7:52 pm 19:52 Partly Cloudy 72 22.2 50 10 46 46 NW 20 31 29.72 1007 10 16 0.00 0.00
8:52 pm 20:52 Mostly Clear 69 20.6 49 9.4 49 49 WNW 10 17 29.76 1008 10 16 0.00 0.00
9:52 pm 21:52 Mostly Clear 68 20 49 9.4 51 51 WNW 7 11 29.80 1009 10 16 0.00 0.00
10:52 pm 22:52 Mostly Clear 67 19.4 49 9.4 53 53 W 9 15 29.82 1010 10 16 0.00 0.00
11:52 pm 23:52 Mostly Clear 65 18.3 50 10 59 59 WSW 5 7 29.83 1010 10 16 0.00 0.00

Powered by AerisWeather